Trostre, United Kingdom

12:38 PM GMT on January 18, 2017 (GMT +0000)
Pembrey Sands

Weather History for EGOP - November, 2013

Change the Weather History Date:

Wednesday, November 20, 2013

  Actual Average Record
Temperature  
Mean Temperature 42 °F -  
Max Temperature 49 °F - - ()
Min Temperature 34 °F - - ()
Degree Days  
Heating Degree Days 24    
Moisture  
Dew Point 41 °F    
Average Humidity 82    
Maximum Humidity 93    
Minimum Humidity 62    
Precipitation  
Precipitation 0.12 in - - ()
Sea Level Pressure  
Sea Level Pressure 29.74 in    
Wind  
Wind Speed 21 mph ()    
Max Wind Speed 37 mph    
Max Gust Speed 50 mph    
Visibility 7.3 miles    
Events Rain    
T = Trace of Precipitation, MM = Missing Value Source: Averaged Metar Reports

Daily Weather History Graph

Daily Weather History Graph

Search for Another Location

Airport or City:

Trip Planner

Search our weather history database for the weather conditions in past years. The results will help you decide how hot, cold, wet, or windy it might be!

Date:

Astronomy

Nov. 20, 2013 Rise Set
Actual Time 7:44 AM GMT 4:20 PM GMT
Civil Twilight 7:07 AM GMT 4:58 PM GMT
Nautical Twilight 6:25 AM GMT 5:40 PM GMT
Astronomical Twilight 5:45 AM GMT 6:19 PM GMT
Moon 6:50 PM GMT (11/20) 10:01 AM GMT (11/20)
Length of Visible Light 9h 51m
Length of Day
8h 35m
Waning Gibbous, 92% of the Moon is Illuminated
Nov 20
Waning Gibbous
Nov 25
Last Quarter
Dec 3
New
Dec 9
First Quarter
Dec 17
Full

Hourly Weather History & Observations

Time (GMT) Temp. Windchill Dew Point Humidity Pressure Visibility Wind Dir Wind Speed Gust Speed Precip Events Conditions
12:00 AM 43 °F - 35 °F 65% 30.10 in 19 mi West 11.5 mph - -   Scattered Clouds
12:50 AM 44.6 °F 38.1 °F 37.4 °F 76% 30.04 in 6.2 mi West 13.8 mph - N/A   Mostly Cloudy
1:50 AM 46.4 °F 40.7 °F 39.2 °F 76% 30.01 in 6.2 mi West 12.7 mph - N/A   Scattered Clouds
2:50 AM 48.2 °F - 42.8 °F 82% 29.98 in 6.2 mi West 23.0 mph - N/A   Mostly Cloudy
3:00 AM 47 °F - 42 °F 79% 29.99 in 9 mi West 23.0 mph - -   Scattered Clouds
3:50 AM 48.2 °F - 44.6 °F 87% 29.92 in 6.2 mi West 26.5 mph - N/A   Mostly Cloudy
4:50 AM 48.2 °F - 44.6 °F 87% 29.89 in 6.2 mi West 29.9 mph - N/A   Mostly Cloudy
5:50 AM 48.2 °F - 44.6 °F 87% 29.83 in 4.3 mi West 27.6 mph 39.1 mph N/A   Mostly Cloudy
6:00 AM 48 °F - 45 °F 84% 29.85 in 4 mi West 27.6 mph - -   Mostly Cloudy
6:50 AM 50.0 °F - 44.6 °F 82% 29.77 in 6.2 mi West 29.9 mph - N/A   Mostly Cloudy
7:50 AM 48.2 °F - 44.6 °F 87% 29.74 in 6.2 mi West 28.8 mph - N/A   Mostly Cloudy
8:50 AM 48.2 °F - 44.6 °F 87% 29.71 in 6.2 mi West 35.7 mph - N/A Rain Rain Showers
9:00 AM 48 °F - 45 °F 84% 29.72 in 6 mi West 35.7 mph - -   Scattered Clouds
9:50 AM 48.2 °F - 44.6 °F 87% 29.65 in 6.2 mi West 36.8 mph 48.3 mph N/A Rain Rain
10:50 AM 44.6 °F 34.9 °F 41.0 °F 87% 29.68 in 3.1 mi NNW 28.8 mph 40.3 mph N/A Rain Rain
11:50 AM 46.4 °F 38.5 °F 41.0 °F 81% 29.65 in 6.2 mi NW 21.9 mph 34.5 mph N/A   Scattered Clouds
12:00 PM 47 °F - 41 °F 72% 29.66 in 12 mi NW 21.9 mph - -   Partly Cloudy
12:50 PM 48.2 °F - 35.6 °F 62% 29.65 in 6.2 mi NNW 31.1 mph 42.6 mph N/A   Partly Cloudy
1:50 PM 46.4 °F 37.0 °F 35.6 °F 66% 29.62 in 6.2 mi NNW 31.1 mph - N/A   Mostly Cloudy
2:50 PM 44.6 °F 35.7 °F 39.2 °F 81% 29.62 in 6.2 mi NW 24.2 mph - N/A   Mostly Cloudy
3:00 PM 45 °F - 39 °F 72% 29.64 in 16 mi NW 24.2 mph - -   Scattered Clouds
3:50 PM 42.8 °F 33.5 °F 39.2 °F 87% 29.62 in 5.6 mi NNW 23.0 mph 35.7 mph N/A Rain Rain Showers
4:50 PM 44.6 °F 34.1 °F 39.2 °F 81% 29.62 in 6.2 mi NNW 34.5 mph 49.5 mph N/A   Scattered Clouds
5:50 PM 42.8 °F 32.5 °F 39.2 °F 87% 29.62 in 6.2 mi NW 28.8 mph - N/A   Scattered Clouds
6:00 PM 43 °F - 39 °F 79% 29.64 in 14 mi NW 28.8 mph - -   Mostly Cloudy
6:50 PM 41.0 °F 32.8 °F 39.2 °F 93% 29.62 in 6.2 mi North 16.1 mph 29.9 mph N/A   Mostly Cloudy
7:50 PM 42.8 °F 35.8 °F 39.2 °F 87% 29.62 in 6.2 mi North 13.8 mph - N/A   Mostly Cloudy
8:50 PM 44.6 °F 37.2 °F 41.0 °F 87% 29.65 in 6.2 mi NNW 17.3 mph 28.8 mph N/A   Scattered Clouds
9:00 PM 44 °F - 40 °F 82% 29.65 in 11 mi NNW 17.3 mph - -   Partly Cloudy
9:50 PM 42.8 °F 35.1 °F 39.2 °F 87% 29.65 in 6.2 mi NNW 16.1 mph - N/A   Scattered Clouds
10:50 PM 42.8 °F 34.0 °F 39.2 °F 87% 29.65 in 6.2 mi North 20.7 mph 32.2 mph N/A   Scattered Clouds
11:50 PM 42.8 °F 34.3 °F 37.4 °F 81% 29.65 in 6.2 mi North 19.6 mph - N/A   Partly Cloudy